This is the latest recevied weather packets stored in our database for station/object KC8BSD. If no packets are shown the sender has not sent any weather packets the latest 10 day(s).
| Time | Temp. | Humidity | Pressure | Rain* | Wind** | Luminosity | Snow |
|---|---|---|---|---|---|---|---|
| 1777553605 | 6.67° C | 80% | 1015.6 hPa | 0 mm | - | 227 W/m² | - |
| 1777553302 | 6.67° C | 83% | 1015.7 hPa | 0 mm | - | 260 W/m² | - |
| 1777552998 | 6.11° C | 82% | 1015.7 hPa | 0 mm | - | 223 W/m² | - |
| 1777552698 | 5.56° C | 84% | 1015.8 hPa | 0 mm | - | 213 W/m² | - |
| 1777552395 | 6.11° C | 86% | 1015.7 hPa | 1.78 mm | - | 195 W/m² | - |
| 1777552091 | 6.11° C | 88% | 1016 hPa | 1.78 mm | - | 184 W/m² | - |
| 1777551788 | 5.56° C | 90% | 1016 hPa | 0 mm | - | 157 W/m² | - |
| 1777551486 | 6.11° C | 91% | 1016.1 hPa | 0 mm | - | 145 W/m² | - |
| 1777551182 | 5.56° C | 92% | 1016.1 hPa | 0 mm | - | 125 W/m² | - |
| 1777550879 | 5° C | 93% | 1016.1 hPa | 0 mm | - | 123 W/m² | - |
| 1777550576 | 5° C | 94% | 1016.3 hPa | 0 mm | - | 108 W/m² | - |
| 1777550271 | 4.44° C | 94% | 1016.3 hPa | 0 mm | - | 40 W/m² | - |
| 1777549968 | 4.44° C | 95% | 1016.2 hPa | 0 mm | - | 42 W/m² | - |
| 1777549665 | 5° C | 96% | 1016.4 hPa | 0 mm | - | 52 W/m² | - |
| 1777549360 | 5° C | 96% | 1016.1 hPa | 0 mm | - | 51 W/m² | - |
| 1777549058 | 5° C | 96% | 1016.2 hPa | 0 mm | - | 51 W/m² | - |
| 1777548754 | 5° C | 96% | 1016.1 hPa | 0 mm | - | 60 W/m² | - |
| 1777548451 | 5° C | 97% | 1016.3 hPa | 0 mm | - | 50 W/m² | - |
| 1777548147 | 4.44° C | 97% | 1016.1 hPa | 0 mm | - | 56 W/m² | - |
| 1777547844 | 4.44° C | 97% | 1016.3 hPa | 0 mm | - | 37 W/m² | - |
| 1777547540 | 4.44° C | 97% | 1016.2 hPa | 0 mm | - | 23 W/m² | - |
| 1777547238 | 4.44° C | 97% | 1016.3 hPa | 0 mm | - | 19 W/m² | - |
| 1777546935 | 4.44° C | 97% | 1016.2 hPa | 0 mm | - | 14 W/m² | - |
| 1777546632 | 4.44° C | 97% | 1015.9 hPa | 0 mm | - | 10 W/m² | - |
| 1777546328 | 4.44° C | 97% | 1015.9 hPa | 0 mm | - | 8 W/m² | - |
* Rain latest hour (hover to see other rain measurements)
** Current wind speed in m/s (hover to see current wind gust speed)